Weather History for Shelby, NC

Change the Weather History Date:

Saturday, March 1, 2014

  Actual Average (KHKY) Record (KHKY)
Temperature  
Mean Temperature 42 °F -  
Max Temperature 54 °F 56 °F 77 °F (2006)
Min Temperature 30 °F 35 °F 14 °F (1980)
Degree Days  
Heating Degree Days 23    
Moisture  
Dew Point 26 °F    
Average Humidity 55    
Maximum Humidity 84    
Minimum Humidity 43    
Precipitation  
Precipitation 0.00 in - - ()
Sea Level Pressure  
Sea Level Pressure 30.26 in    
Wind  
Wind Speed 4 mph (NE)    
Max Wind Speed 9 mph    
Max Gust Speed -    
Visibility 10 miles    
Events Rain    
Averages and records for this station are not official NWS values.
T = Trace of Precipitation, MM = Missing Value Source: NWS Daily Summary

Daily Weather History Graph

Daily Weather History Graph

Search for Another Location

Airport:

Trip Planner

Search our weather history database for the weather conditions in past years. The results will help you decide how hot, cold, wet, or windy it might be!

Date:

Astronomy

Mar. 01, 2014 Rise Set
Actual Time 6:56 AM EST 6:21 PM EST
Civil Twilight 6:30 AM EST 6:47 PM EST
Nautical Twilight 6:01 AM EST 7:16 PM EST
Astronomical Twilight 5:31 AM EST 7:46 PM EST
Moon 6:50 AM EST (3/1) 7:04 PM EST (3/1)
Length of Visible Light 12h 16m
Length of Day
11h 25m
New Moon, 0% of the Moon is Illuminated
Mar 1
New Moon
Mar 8
First Quarter
Mar 16
Full
Mar 23
Last Quarter
Mar 30
New

Hourly Weather History & Observations

Time (EST) Temp. Windchill Dew Point Humidity Pressure Visibility Wind Dir Wind Speed Gust Speed Precip Events Conditions
12:15 AM 32.2 °F 26.7 °F 17.8 °F 55% 30.26 in 10.0 mi NNE 5.8 mph - N/A   Clear
12:35 AM 32.2 °F 27.7 °F 18.0 °F 56% 30.26 in 10.0 mi NNE 4.6 mph - N/A   Clear
12:55 AM 32.2 °F 27.7 °F 17.6 °F 55% 30.26 in 10.0 mi North 4.6 mph - N/A   Clear
1:15 AM 32.4 °F 26.9 °F 17.6 °F 55% 30.27 in 10.0 mi North 5.8 mph - N/A   Scattered Clouds
1:35 AM 30.9 °F 25.2 °F 19.2 °F 62% 30.26 in 10.0 mi NNE 5.8 mph - N/A   Mostly Cloudy
1:55 AM 31.8 °F 26.2 °F 19.8 °F 61% 30.26 in 10.0 mi NNE 5.8 mph - N/A   Overcast
2:15 AM 32.0 °F 25.6 °F 18.9 °F 58% 30.26 in 10.0 mi NNE 6.9 mph - N/A   Scattered Clouds
2:35 AM 32.9 °F 26.7 °F 18.5 °F 55% 30.26 in 10.0 mi NNE 6.9 mph - N/A   Scattered Clouds
2:55 AM 32.9 °F 26.7 °F 19.4 °F 58% 30.25 in 10.0 mi NNE 6.9 mph - N/A   Scattered Clouds
3:15 AM 32.9 °F 26.7 °F 19.0 °F 57% 30.25 in 10.0 mi NNE 6.9 mph - N/A   Clear
3:35 AM 32.5 °F 26.2 °F 18.5 °F 56% 30.25 in 10.0 mi North 6.9 mph - N/A   Scattered Clouds
3:55 AM 32.4 °F 26.0 °F 18.5 °F 57% 30.26 in 10.0 mi North 6.9 mph - N/A   Mostly Cloudy
4:15 AM 32.9 °F 26.7 °F 18.9 °F 56% 30.25 in 10.0 mi NNE 6.9 mph - N/A   Overcast
4:35 AM 32.9 °F 27.5 °F 19.0 °F 57% 30.25 in 10.0 mi NNE 5.8 mph - N/A   Overcast
4:55 AM 33.4 °F 26.6 °F 18.5 °F 54% 30.25 in 10.0 mi NNE 8.1 mph - N/A   Overcast
5:15 AM 33.8 °F 27.7 °F 17.8 °F 52% 30.27 in 10.0 mi North 6.9 mph - N/A   Overcast
5:35 AM 33.8 °F 29.6 °F 18.0 °F 52% 30.28 in 10.0 mi North 4.6 mph - N/A   Mostly Cloudy
5:55 AM 33.8 °F 30.8 °F 18.0 °F 52% 30.28 in 10.0 mi North 3.5 mph - N/A   Overcast
6:15 AM 33.8 °F 30.8 °F 18.3 °F 53% 30.29 in 10.0 mi North 3.5 mph - N/A   Overcast
6:35 AM 33.8 °F 29.6 °F 19.2 °F 55% 30.29 in 10.0 mi NNE 4.6 mph - N/A   Overcast
6:55 AM 33.8 °F 30.8 °F 18.7 °F 54% 30.30 in 10.0 mi North 3.5 mph - N/A Rain Light Rain
7:15 AM 33.6 °F 29.4 °F 20.8 °F 59% 30.30 in 10.0 mi NE 4.6 mph - N/A   Light Drizzle
7:35 AM 33.6 °F 29.4 °F 21.0 °F 60% 30.30 in 10.0 mi NNE 4.6 mph - N/A   Overcast
7:55 AM 33.8 °F 30.8 °F 19.4 °F 56% 30.32 in 10.0 mi NNE 3.5 mph - N/A   Overcast
8:15 AM 33.8 °F 30.8 °F 19.9 °F 57% 30.32 in 10.0 mi NE 3.5 mph - N/A   Overcast
8:35 AM 34.2 °F 30.0 °F 19.8 °F 56% 30.33 in 10.0 mi NNE 4.6 mph - N/A   Overcast
8:55 AM 34.7 °F 30.6 °F 19.8 °F 54% 30.33 in 10.0 mi NE 4.6 mph - N/A   Overcast
9:15 AM 35.6 °F 32.8 °F 19.9 °F 53% 30.33 in 10.0 mi NNE 3.5 mph - N/A   Overcast
9:35 AM 35.6 °F - 19.9 °F 53% 30.34 in 10.0 mi Calm Calm - N/A   Overcast
9:55 AM 36.7 °F 34.1 °F 20.1 °F 51% 30.34 in 10.0 mi ENE 3.5 mph - N/A   Overcast
10:15 AM 37.4 °F 33.8 °F 19.8 °F 49% 30.34 in 10.0 mi ENE 4.6 mph - N/A   Overcast
10:35 AM 38.3 °F - 19.8 °F 47% 30.34 in 10.0 mi Calm Calm - N/A   Overcast
10:55 AM 38.7 °F - 19.8 °F 47% 30.34 in 10.0 mi Calm Calm - N/A   Overcast
11:15 AM 39.6 °F 37.4 °F 20.3 °F 46% 30.33 in 10.0 mi ENE 3.5 mph - N/A   Overcast
11:35 AM 40.8 °F 38.8 °F 21.2 °F 46% 30.33 in 10.0 mi NE 3.5 mph - N/A   Overcast
11:55 AM 41.7 °F - 21.4 °F 44% 30.33 in 10.0 mi Calm Calm - N/A   Overcast
12:15 PM 42.6 °F - 22.3 °F 45% 30.32 in 10.0 mi Calm Calm - N/A   Overcast
12:35 PM 44.6 °F - 23.4 °F 43% 30.31 in 10.0 mi Calm Calm - N/A   Overcast
1:00 PM 46.6 °F - 25.0 °F 43% 30.29 in 10.0 mi Calm Calm - N/A   Overcast
1:15 PM 47.7 °F - 27.9 °F 46% 30.28 in 10.0 mi SSE 3.5 mph - N/A   Overcast
1:35 PM 48.2 °F - 28.6 °F 47% 30.27 in 10.0 mi Calm Calm - N/A   Overcast
1:55 PM 49.3 °F - 28.9 °F 45% 30.25 in 10.0 mi Calm Calm - N/A   Overcast
2:15 PM 50.5 °F - 30.6 °F 46% 30.24 in 10.0 mi Calm Calm - N/A   Mostly Cloudy
2:35 PM 50.5 °F - 30.6 °F 46% 30.24 in 10.0 mi South 4.6 mph - N/A   Mostly Cloudy
2:55 PM 52.0 °F - 31.5 °F 46% 30.22 in 10.0 mi South 5.8 mph - N/A   Mostly Cloudy
3:15 PM 52.0 °F - 32.0 °F 47% 30.22 in 10.0 mi South 5.8 mph - N/A   Scattered Clouds
3:35 PM 52.9 °F - 32.0 °F 45% 30.21 in 10.0 mi SSE 5.8 mph - N/A   Clear
3:55 PM 53.6 °F - 32.4 °F 44% 30.20 in 10.0 mi South 6.9 mph - N/A   Clear
4:15 PM 54.0 °F - 32.0 °F 43% 30.20 in 10.0 mi SSW 9.2 mph - N/A   Clear
4:35 PM 54.5 °F - 32.5 °F 43% 30.20 in 10.0 mi WSW 8.1 mph - N/A   Clear
4:55 PM 54.7 °F - 32.5 °F 43% 30.20 in 10.0 mi SW 6.9 mph - N/A   Clear
5:15 PM 54.7 °F - 32.9 °F 44% 30.20 in 10.0 mi South 5.8 mph - N/A   Clear
5:35 PM 54.7 °F - 34.0 °F 46% 30.21 in 10.0 mi South 5.8 mph - N/A   Clear
5:55 PM 54.0 °F - 34.2 °F 47% 30.21 in 10.0 mi Calm Calm - N/A   Clear
6:15 PM 53.2 °F - 34.7 °F 49% 30.21 in 10.0 mi Calm Calm - N/A   Clear
6:35 PM 51.8 °F - 34.9 °F 53% 30.21 in 10.0 mi SSE 3.5 mph - N/A   Clear
6:55 PM 51.3 °F - 35.1 °F 54% 30.22 in 10.0 mi Calm Calm - N/A   Clear
7:15 PM 50.2 °F - 35.2 °F 57% 30.22 in 10.0 mi Calm Calm - N/A   Clear
7:35 PM 49.5 °F - 35.6 °F 59% 30.22 in 10.0 mi Calm Calm - N/A   Clear
7:55 PM 49.5 °F - 35.6 °F 59% 30.22 in 10.0 mi SSE 3.5 mph - N/A   Clear
8:15 PM 48.2 °F - 35.6 °F 62% 30.22 in 10.0 mi Calm Calm - N/A   Clear
8:35 PM 47.7 °F - 35.8 °F 63% 30.22 in 10.0 mi Calm Calm - N/A   Clear
8:55 PM 47.7 °F - 36.0 °F 64% 30.23 in 10.0 mi Calm Calm - N/A   Clear
9:15 PM 47.7 °F - 36.3 °F 65% 30.23 in 10.0 mi Calm Calm - N/A   Clear
9:35 PM 46.8 °F - 36.1 °F 67% 30.23 in 10.0 mi Calm Calm - N/A   Clear
9:55 PM 46.4 °F - 36.0 °F 67% 30.24 in 10.0 mi Calm Calm - N/A   Clear
10:15 PM 44.4 °F - 35.4 °F 71% 30.25 in 10.0 mi Calm Calm - N/A   Clear
10:35 PM 43.2 °F - 35.8 °F 75% 30.24 in 10.0 mi Calm Calm - N/A   Clear
10:55 PM 41.7 °F - 35.2 °F 78% 30.24 in 10.0 mi Calm Calm - N/A   Clear
11:15 PM 43.0 °F 41.3 °F 35.8 °F 76% 30.24 in 10.0 mi SSE 3.5 mph - N/A   Clear
11:35 PM 44.2 °F 42.7 °F 36.5 °F 74% 30.24 in 10.0 mi South 3.5 mph - N/A   Clear
11:55 PM 39.0 °F - 34.5 °F 84% 30.23 in 10.0 mi Calm Calm - N/A   Clear